Regional Weather Roundup
Issued by NWS Tiyan, Guam

Home | Current Version | Previous Version | Text Only | Print | Product List | Glossary On
Versions: 1 2 3 4 5 6 7 8 9 10 11 12 13 14 15 16 17 18 19 20 21 22 23 24 25 26 27 28 29 30 31 32 33 34 35 36 37 38 39 40 41 42 43 44 45 46 47 48 49 50
000
ASGM40 PGUM 291012
RWRGUM
WEATHER ROUNDUP FOR THE MARIANAS
NATIONAL WEATHER SERVICE TIYAN GU
800 PM CHST TUE JUL 29 2014

GUZ001>004-291100-
MARIANA ISLANDS-

CITY           SKY/WX    TMP DP  RH WIND       PRES   REMARKS
GUAM AIRPORT   RAIN      79  77  94 W23G30    29.79F
ANDERSEN AFB   RAIN      77  75  94 NW30G41   29.76F
ROTA AIRPORT   LGT RAIN  75  75 100 NW15G24   29.81R
TINIAN AP      MOCLDY    77  77 100 NW7       29.76F
SAIPAN AP      LGT RAIN  81  79  94 N8        29.78F

$$




USA.gov is the U.S. government's official web portal to all federal, state and local government web resources and services.